Regional Weather Roundup
Issued by NWS

Home | Current Version | Previous Version | Graphics & Text | Print | Product List | Glossary On
Versions: 1 2 3 4 5 6 7 8 9 10 11 12 13 14 15 16 17 18 19 20 21 22 23 24 25 26 27 28 29 30 31 32 33 34 35 36 37 38 39 40 41 42 43 44 45 46 47 48 49 50
000
ASUS43 KMPX 280810
RWRMN
WEATHER ROUNDUP FOR MINNESOTA
NATIONAL WEATHER SERVICE TWIN CITIES/CHANHASSEN MN
200 AM CST WED JAN 28 2015


NOTE: "FAIR" INDICATES FEW OR NO CLOUDS BELOW 12,000 FEET WITH NO
SIGNIFICANT WEATHER AND/OR OBSTRUCTIONS TO VISIBILITY. N/A MEANS
CURRENT SKY AND/OR WEATHER CONDITIONS ARE NOT AVAILABLE.

MNZ060>063-068>070-280900-
   Twin Cities Metro

CITY           SKY/WX    TMP DP  RH WIND       PRES   REMARKS
TWIN CITIES    CLOUDY    30  25  81 SE12      30.09F WCI  20
ST PAUL        CLOUDY    30  26  85 SE12      30.11F WCI  20
CRYSTAL        CLOUDY    31  26  82 SE12      30.06F WCI  22
BLAINE         CLOUDY    30  28  93 SE13      30.08S WCI  20
LAKEVILLE      CLOUDY    28  27  93 SE9       30.08S WCI  20
EDEN PRAIRIE   CLOUDY    31  26  82 SE12      30.06F WCI  22
SOUTH ST PAUL  CLOUDY    31  26  83 SE8       30.10S WCI  23
LAKE ELMO      CLOUDY    30  28  93 SE9       30.10F WCI  22
$$
MNZ001>005-007-008-013>017-022>024-027-028-280900-
   Northwest Minnesota

CITY           SKY/WX    TMP DP  RH WIND       PRES   REMARKS
BEMIDJI        CLOUDY    30  27  88 S9        29.94S WCI  21
HALLOCK        CLOUDY    32  30  93 SE13      29.87F FOG     WCI  22
ROSEAU         CLOUDY    30  25  80 SE7       29.91F WCI  23
WARROAD        CLOUDY    28  25  86 SE7       29.93F WCI  21
THIEF RVR FALL CLOUDY    30  28  93 SE10      29.89F WCI  21
CROOKSTON      CLOUDY    34  30  86 S15       29.88F WCI  24
FOSSTON        CLOUDY    30  28  93 SE8       29.90F WCI  23
DETROIT LAKES  CLOUDY    32  32 100 SE16      29.90F WCI  21
MOORHEAD       CLOUDY    36  36 100 S18       29.88F
PARK RAPIDS    CLOUDY    31  28  89 S13       29.93F WCI  21
MAHNOMEN       CLOUDY    32  30  92 SE14      29.88F WCI  22
$$
MNZ006-009>011-018-025>026-280900-
   North Central Minnesota

CITY           SKY/WX    TMP DP  RH WIND       PRES   REMARKS
BAUDETTE       CLOUDY    27  22  81 SE5       29.94F WCI  22
FLAG ISLAND    CLOUDY    27  25  93 SE12      29.94S WCI  16
INTL FALLS     CLOUDY    27  23  85 S3        29.98F
WASKISH        MOCLDY    28  27  93 SE5       29.94F WCI  23
BIG FORK       CLOUDY    28  25  86 S9        29.98S WCI  20
LONGVILLE      CLOUDY    28  27  93 S10       29.97F WCI  19
GRAND RAPIDS   CLOUDY    27  23  86 S13       29.99F WCI  16
CRANE LAKE     CLOUDY    25  25 100 CALM      30.03F
ORR            CLOUDY    27  21  80 SE7       29.98S WCI  19
COOK           CLOUDY    27  23  86 SE9       30.01S WCI  17
WALKER         CLOUDY    30  26  86 SE7       29.95F WCI  23
$$
MNZ012-019>021-037-280900-
   Northeast Minnesota

CITY           SKY/WX    TMP DP  RH WIND       PRES   REMARKS
DULUTH         CLOUDY    25  19  78 S10       30.04F WCI  15
ELY            CLOUDY    27  23  86 S5        30.03F WCI  21
HIBBING        CLOUDY    27  22  81 S8        30.01F WCI  19
EVELETH        CLOUDY    27  23  86 S10       30.03F WCI  17
DULUTH HARBOR  MOCLDY    27  21  80 S8        30.12S WCI  18
TWO HARBORS    CLOUDY    28  25  86 S5        30.06F WCI  23
SILVER BAY     CLOUDY    28  25  86 S5        30.06F WCI  23
GRAND MARAIS     N/A     32  26  78 S12       30.13R WCI  23
G MARAIS ARPRT   N/A     25  19  80 S5        30.06S WCI  19
$$
MNZ029>031-032-039>041-046>048-054>057-064-280900-
   West Central Minnesota

CITY           SKY/WX    TMP DP  RH WIND       PRES   REMARKS
FERGUS FALLS   PTCLDY    34  30  86 SE17      29.93F WCI  23
WHEATON        MOCLDY    30  28  93 SE16G22   29.91F WCI  19
MORRIS         MOCLDY    32  30  93 SE21      29.91F FOG     WCI  20
ALEXANDRIA     CLOUDY    32  29  88 SE17      29.95F WCI  21
ELBOW LAKE     MOCLDY    32  31  95 SE18G25   29.91F WCI  20
WADENA         CLOUDY    30  28  93 SE13      29.95S WCI  20
GLENWOOD       CLOUDY    32  30  93 SE14G21   29.96F FOG     WCI  22
APPLETON       PTCLDY    34  30  86 SE12G20   29.93F WCI  25
BENSON         CLOUDY    34  30  86 S16       29.95F WCI  23
ORTONVILLE     MOCLDY    30  28  93 SE15G21   29.89F FOG     WCI  19
MADISON        PTCLDY    36  34  93 SE18      29.91F
WILLMAR        CLOUDY    34  30  86 SE20      30.00S FOG     WCI  22
$$
MNZ033>034-036-042>043-049>051-058-059-280900-
   Central Minnesota

CITY           SKY/WX    TMP DP  RH WIND       PRES   REMARKS
ST CLOUD       CLOUDY    31  28  89 SE12      30.02F WCI  22
SAUK CENTRE    CLOUDY    31  30  95 SE15      29.98F WCI  21
PAYNESVILLE    CLOUDY    29  29  98 E10G17    30.01S FOG     WCI  20
AITKIN         CLOUDY    30  25  80 S8        30.00F WCI  23
PINE RIVER     CLOUDY    30  27  86 S10       30.01F WCI  21
BRAINERD       CLOUDY    30  26  85 S10       30.00F WCI  21
STAPLES        CLOUDY    30  28  93 SE12      29.97F WCI  21
LONG PRAIRIE   CLOUDY    30  30 100 SE13G18   29.98F FOG     WCI  20
LITTLE FALLS   CLOUDY    32  28  86 SE7       30.02F WCI  26
LITCHFIELD     CLOUDY    34  32  93 SE10      30.02F WCI  26
BUFFALO        CLOUDY    31  28  88 SE9       30.06S WCI  23
MAPLE LAKE     CLOUDY    32  31  94 SE10      30.05S WCI  24
$$
MNZ037-044-045-052-053-280900-
   East Central Minnesota

CITY           SKY/WX    TMP DP  RH WIND       PRES   REMARKS
PRINCETON      CLOUDY    32  28  86 SE8       30.05F FOG     WCI  25
MORA           CLOUDY    28  25  86 SE7       30.08F WCI  21
CAMBRIDGE      CLOUDY    30  23  74 SE6       30.05F WCI  24
RUSH CITY      CLOUDY    28  25  86 SE9       30.08F WCI  19
MOOSE LAKE     CLOUDY    28  23  80 S7        30.04F WCI  21
HINCKLEY       CLOUDY    28  27  93 S12       30.08F WCI  18
CLOQUET        CLOUDY    27  21  80 SE6       30.05S WCI  20
MCGREGOR       CLOUDY    30  27  86 S10       30.03F WCI  21
$$
MNZ071>073-080-081-089-090-097-098-280900-
   Southwest Minnesota

CITY           SKY/WX    TMP DP  RH WIND       PRES   REMARKS
MONTEVIDEO     PTCLDY    32  32 100 S15G21    29.96F WCI  22
GRANITE FALLS  PTCLDY    32  31  95 SE15G21   29.98F WCI  22
CANBY          CLEAR     32  32  99 SE10      29.91F WCI  24
MARSHALL       CLEAR     32  28  86 SE14      29.94F WCI  22
REDWOOD FALLS  CLOUDY    33  31  92 SE17      30.00S WCI  22
OLIVIA         CLOUDY    32  32 100 SE15      29.99F WCI  22
PIPESTONE      CLEAR     34  30  86 S15       29.89F WCI  24
WINDOM         MOCLDY    30  30 100 SE15G23   29.98S FOG     WCI  19
WORTHINGTON    CLEAR     32  28  86 S13G18    29.96S WCI  22
JACKSON        CLOUDY    32  30  93 SE14      29.99S WCI  22
TRACY          CLEAR     33  32  94 S13       29.95F WCI  24
SLAYTON        FAIR      32  31  95 SE17      29.93F WCI  21
$$
MNZ065>067-074>077-082>085-091>093-280900-
   South Central Minnesota

CITY           SKY/WX    TMP DP  RH WIND       PRES   REMARKS
MANKATO        CLOUDY    30  27  86 SE15      30.05S WCI  19
NEW ULM        CLOUDY    32  30  93 SE10      30.03S FOG     WCI  24
ST JAMES       CLOUDY    34  30  86 SE14      30.03F WCI  24
FAIRMONT       CLOUDY    30  27  86 SE20      30.01F WCI  18
GLENCOE        CLOUDY    32  31  96 SE13      30.04F WCI  22
FARIBAULT      CLOUDY    30  27  86 SE12      30.08S WCI  21
OWATONNA       CLOUDY    28  27  93 SE17G23   30.08S WCI  16
WASECA         CLOUDY    32  30  93 SE14      30.08S FOG     WCI  22
ALBERT LEA     CLOUDY    28  28 100 SE14G20   30.07S FOG     WCI  17
$$
MNZ078>079-086>088-094>096-280900-
   Southeast Minnesota

CITY           SKY/WX    TMP DP  RH WIND       PRES   REMARKS
ROCHESTER      CLOUDY    26  24  92 SE17      30.10F FOG     WCI  13
RED WING       CLOUDY    30  25  80 SE7       30.12F WCI  23
STANTON        CLOUDY    30  27  86 SE8       30.08F WCI  23
DODGE CENTER   CLOUDY    28  27  93 SE17      30.08F WCI  16
WINONA         CLOUDY    30  25  80 S5        30.17F WCI  25
AUSTIN         CLOUDY    28  27  93 SE13      30.08F WCI  18
PRESTON        CLOUDY    25  23  91 S12       30.13F WCI  14
$$
ABBREVIATIONS USED IN REMARKS
   TC - TEMPERATURES IN CELSIUS
  WCI - WIND CHILL INDEX
   HX - HEAT INDEX
  VSB - VISIBILITY
$$



USA.gov is the U.S. government's official web portal to all federal, state and local government web resources and services.